Погода в Монино

Россия / Московская область     55°50′21″N   38°11′43″E
темп.,
°C
ветер,
м/с
пор.,
м/с
влажн.,
%
обл.,
%
осадки,
мм/ч
давл.,
гПа
погр.,
м
19 апреля, пн
пн1900:00+6св3978100 0.0 1023380
03:00+7св4980100 0.1 1023559
06:00+6всв51186100 0.0 1023595
09:00+7всв5972100 0.0 1023703
12:00+10всв6854100 0.0 10231160
15:00+11всв6948100 0.0 10231527
18:00+10всв5852100 0.0 10231515
21:00+6в51051100 0.0 1024934
20 апреля, вт
вт2000:00+5в5952100 0.0 1024833
03:00+2всв4118690 0.3 1023607
06:00+3всв5116579 0.0 1022585
09:00+5в5966100 0.0 1022709
12:00+3всв51395100 1.6 1021671
15:00+3в51296100 5.4 1020736
18:00+3в51296100 2.2 1018834
21:00+3в51397100 2.6 1015736
21 апреля, ср
ср2100:00+4всв61497100 2.4 1011994
03:00+1всв61698100 9.8 1006814
06:00+3всв61597100 6.1 1001962
09:00+5вюв51196100 9.1 9971265
12:00+2юз41097100 2.4 999457
15:00+3юз61297100 2.6 1005801
18:00+3юз51095100 0.1 1008933
21:00+4ююз4109099 0.1 1011639
22 апреля, чт
чт2200:00+2ю399776 0.0 1012225
03:00+2ю399661 0.0 1013230
06:00+2ю289711 0.0 1014226
09:00+6ююз4782100 0.0 1015473
12:00+10ююз5767100 0.0 10151245
15:00+11ююз4769100 0.3 10161318
18:00+11ююз486955 0.1 1016513
21:00+7ю388852 0.1 1017155
23 апреля, пт
пт2300:00+6ююв39935 0.0 1017174
03:00+5ю269515 0.0 1017106
06:00+5ю279512 0.0 1017144
09:00+12ю48735 0.0 1017461
12:00+16ю510567 0.0 10171596
15:00+17ююз68479 0.0 10152247
18:00+15ю510615 0.5 1015977
21:00+11ююв514755 0.6 1014439